Simultaneous Nadir Overpasses (SNOs) Predictions

Prediction of SNOs between NOAA-20 and METOP-B Satellite Orbit:

Table of predicted SNOs for the next 14.0 days since TLE Epoch: 7/17/2021
Index Date (NOAA-20) Time (NOAA-20) Lat,Lon (NOAA-20) SZA (NOAA-20 ) Date (METOP-B) Time (METOP-B) Lat,Lon (METOP-B) SZA (METOP-B ) Distance(km) Time Diff (sec)
1 07/23/2021 21:15:41 -73.48, 31.26 126.11 07/23/2021 21:16:47 -73.40, 34.23 126.38 94.62 66
2 07/23/2021 22:06:22 73.24,-160.89 53.63 07/23/2021 22:07:31 73.19,-158.92 53.44 63.74 69
3 07/23/2021 22:57:05 -73.19, 6.54 126.43 07/23/2021 22:58:14 -73.13, 8.29 126.60 56.67 69
4 07/23/2021 23:47:46 72.94, 174.38 53.31 07/23/2021 23:48:58 72.91, 175.16 53.22 25.64 72
5 07/24/2021 00:38:29 -72.89, -18.20 126.74 07/24/2021 00:39:42 -72.81, -17.74 126.87 17.71 73
6 07/24/2021 01:29:12 72.75, 149.42 53.11 07/24/2021 01:30:23 72.74, 149.46 53.08 1.43 71
7 07/24/2021 02:19:56 -72.75, -43.26 126.89 07/24/2021 02:21:05 -72.74, -43.23 126.92 1.63 69
8 07/24/2021 03:10:41 72.70, 124.14 53.07 07/24/2021 03:11:45 72.72, 124.07 53.08 2.98 64
9 07/24/2021 04:01:25 -72.70, -68.54 126.92 07/24/2021 04:02:27 -72.72, -68.61 126.92 2.74 62
10 07/24/2021 04:52:10 72.71, 98.75 53.09 07/24/2021 04:53:06 72.70, 98.69 53.08 2.12 56
11 07/24/2021 05:42:54 -72.71, -93.93 126.90 07/24/2021 05:43:48 -72.70, -93.99 126.92 2.23 54
12 07/24/2021 06:33:40 72.71, 73.37 53.11 07/24/2021 06:34:27 72.73, 73.42 53.12 2.66 47
13 07/24/2021 07:24:24 -72.71,-119.31 126.88 07/24/2021 07:25:09 -72.73,-119.27 126.88 2.41 45
14 07/24/2021 08:15:10 72.72, 47.98 53.13 07/24/2021 08:15:49 72.71, 48.04 53.12 1.85 39
15 07/24/2021 09:05:54 -72.72,-144.70 126.86 07/24/2021 09:06:31 -72.71,-144.65 126.88 1.99 37
16 07/24/2021 09:56:39 72.67, 22.70 53.10 07/24/2021 09:57:11 72.69, 22.65 53.11 2.69 32
17 07/24/2021 10:47:23 -72.67,-169.98 126.90 07/24/2021 10:47:53 -72.69,-170.03 126.89 2.43 30
18 07/24/2021 11:38:09 72.68, -2.68 53.12 07/24/2021 11:38:33 72.67, -2.73 53.11 1.64 24
19 07/24/2021 12:28:53 -72.68, 164.64 126.88 07/24/2021 12:29:15 -72.67, 164.59 126.89 1.76 22
20 07/24/2021 13:19:39 72.68, -28.07 53.14 07/24/2021 13:19:54 72.70, -28.00 53.15 3.02 15
21 07/24/2021 14:10:23 -72.68, 139.25 126.86 07/24/2021 14:10:36 -72.70, 139.31 126.85 2.81 13
22 07/24/2021 15:01:09 72.69, -53.45 53.16 07/24/2021 15:01:16 72.68, -53.39 53.15 2.30 7
23 07/24/2021 15:51:53 -72.69, 113.87 126.84 07/24/2021 15:51:58 -72.68, 113.93 126.85 2.41 5
24 07/24/2021 16:42:38 72.64, -78.73 53.13 07/24/2021 16:42:38 72.66, -78.77 53.15 2.46 0
25 07/24/2021 17:33:22 -72.64, 88.58 126.87 07/24/2021 17:33:20 -72.66, 88.55 126.85 2.19 2
26 07/24/2021 18:24:08 72.65,-104.12 53.15 07/24/2021 18:24:00 72.64,-104.15 53.14 1.17 8
27 07/24/2021 19:14:52 -72.64, 63.20 126.85 07/24/2021 19:14:42 -72.64, 63.17 126.86 1.32 10
28 07/24/2021 20:05:38 72.65,-129.50 53.17 07/24/2021 20:05:21 72.67,-129.42 53.19 3.42 17
29 07/24/2021 20:56:22 -72.65, 37.82 126.83 07/24/2021 20:56:03 -72.67, 37.89 126.81 3.25 19
30 07/24/2021 21:47:08 72.66,-154.89 53.19 07/24/2021 21:46:43 72.65,-154.81 53.18 2.79 25
31 07/24/2021 22:37:52 -72.65, 12.43 126.81 07/24/2021 22:37:25 -72.65, 12.51 126.82 2.87 27
32 07/24/2021 23:28:37 72.61, 179.83 53.15 07/24/2021 23:28:05 72.63, 179.81 53.18 2.31 32
33 07/25/2021 00:19:21 -72.61, -12.85 126.84 07/25/2021 00:18:47 -72.63, -12.87 126.82 2.04 34
34 07/25/2021 01:10:07 72.62, 154.45 53.17 07/25/2021 01:09:27 72.61, 154.43 53.18 0.74 40
35 07/25/2021 02:00:51 -72.61, -38.24 126.82 07/25/2021 02:00:09 -72.61, -38.25 126.82 0.94 42
36 07/25/2021 02:51:37 72.62, 129.06 53.19 07/25/2021 02:50:49 72.59, 129.05 53.18 3.43 48
37 07/25/2021 03:42:21 -72.62, -63.62 126.80 07/25/2021 03:41:31 -72.59, -63.63 126.82 3.66 50
38 07/25/2021 04:33:07 72.63, 103.68 53.22 07/25/2021 04:32:10 72.62, 103.77 53.22 3.31 57
39 07/25/2021 05:23:51 -72.62, -89.01 126.78 07/25/2021 05:22:52 -72.62, -88.91 126.78 3.37 59
40 07/25/2021 06:14:36 72.58, 78.39 53.18 07/25/2021 06:13:32 72.60, 78.39 53.22 2.27 64
41 07/25/2021 07:05:20 -72.58,-114.29 126.82 07/25/2021 07:04:14 -72.60,-114.29 126.78 2.02 66
42 07/25/2021 07:56:06 72.59, 53.01 53.20 07/25/2021 07:54:54 72.58, 53.01 53.21 0.56 72
43 07/25/2021 08:46:50 -72.58,-139.67 126.80 07/25/2021 08:45:36 -72.58,-139.67 126.79 0.79 74
44 07/25/2021 09:37:32 72.39, 28.03 53.00 07/25/2021 09:36:19 72.41, 27.32 53.08 23.98 73
45 07/25/2021 10:28:15 -72.34,-164.55 127.05 07/25/2021 10:27:03 -72.30,-165.56 127.01 34.23 72
46 07/25/2021 11:18:56 72.08, 3.25 52.68 07/25/2021 11:17:47 72.08, 1.35 52.81 65.06 69
47 07/25/2021 12:09:39 -72.03, 170.66 127.37 07/25/2021 12:08:30 -72.03, 168.57 127.23 71.63 69



Historial Predications of SNOs between NOAA-20 and METOP-B
